Date String (YYYY-MM-DD hh:mm:ss) UTC,Instrument flags,Ambient pressure (hPa),Sample flow (lpm),Bypass flow (lpm),Sample temperature (°C),Ambient temperature (°C),ASC tube jacket temperature (°C),LED temperature (°C),Box temperature (°C),Sample RH (%),Span deviation,Mass concentration (μg/m³),Mass concentration (μg/m³),Mass concentration (μg/m³)
DateTimeUTC,F1_M11,P_M11,Q1_M11,Q2_M11,T1_M11,T2_M11,T3_M11,T4_M11,T5_M11,U1_M11,ZSPAN_M11,X2_M11,X0_M11,X1_M11
2022-08-29 22:00:00,,0829.8,5.00,0.00,29.4,26.6,00.0,38.0,31.2,23.2,0000.0,0007.27,0019.60,0006.05
2022-08-29 22:01:00,,0829.8,5.00,0.00,29.4,26.9,00.0,38.0,31.1,23.6,0000.0,0007.35,0019.45,0006.08
2022-08-29 22:02:00,,0829.8,5.01,0.00,29.3,27.2,00.0,38.0,31.1,23.9,0000.0,0007.41,0020.26,0006.11
2022-08-29 22:03:00,,0829.8,4.99,0.00,29.3,27.5,00.0,38.0,31.1,23.8,0000.0,0007.46,0020.44,0006.13
2022-08-29 22:04:00,,0829.8,5.00,0.00,29.4,27.8,00.0,38.0,31.2,23.8,0000.0,0007.43,0021.10,0006.13
2022-08-29 22:05:00,,0829.8,5.00,0.00,29.4,28.0,00.0,38.0,31.3,23.5,0000.0,0007.44,0020.90,0006.13
2022-08-29 22:06:00,,0829.8,5.01,0.00,29.4,28.2,00.0,38.0,31.3,23.4,0000.0,0007.48,0020.99,0006.14
2022-08-29 22:07:00,,0829.9,5.01,0.00,29.5,28.4,00.0,38.0,31.4,23.5,0000.0,0007.52,0021.33,0006.16
2022-08-29 22:08:00,,0829.9,4.98,0.00,29.5,28.5,00.0,38.1,31.5,23.6,0000.0,0007.49,0021.14,0006.16
2022-08-29 22:09:00,,0829.8,5.01,0.00,29.6,27.6,00.0,38.1,31.5,23.5,0000.0,0007.42,0021.00,0006.14
2022-08-29 22:10:00,,0829.8,5.00,0.00,29.5,26.6,00.0,38.1,31.4,23.4,0000.0,0007.39,0021.47,0006.14
2022-08-29 22:11:00,,0829.8,4.99,0.00,29.5,26.6,00.0,38.0,31.3,23.4,0000.0,0007.34,0020.64,0006.15
2022-08-29 22:12:00,,0829.8,5.00,0.00,29.4,26.9,00.0,38.0,31.2,23.4,0000.0,0007.32,0020.44,0006.14
2022-08-29 22:13:00,,0829.8,5.01,0.00,29.4,27.2,00.0,38.0,31.1,23.3,0000.0,0007.32,0019.15,0006.15
2022-08-29 22:14:00,,0829.8,5.00,0.00,29.4,27.5,00.0,38.0,31.1,23.4,0000.0,0007.36,0018.52,0006.15
2022-08-29 22:15:00,,0829.8,5.00,0.00,29.4,27.8,00.0,38.0,31.2,23.6,0000.0,0007.35,0018.27,0006.16
2022-08-29 22:16:00,,0829.8,5.00,0.00,29.4,28.0,00.0,38.0,31.3,23.7,0000.0,0007.35,0017.72,0006.17
2022-08-29 22:17:00,,0829.8,5.01,0.00,29.5,28.2,00.0,38.0,31.3,23.3,0000.0,0007.33,0017.14,0006.15
2022-08-29 22:18:00,,0829.8,5.01,0.00,29.5,28.4,00.0,38.1,31.4,23.3,0000.0,0007.31,0016.98,0006.14
2022-08-29 22:19:00,,0829.8,4.98,0.00,29.6,28.2,00.0,38.1,31.5,23.4,0000.0,0007.34,0017.42,0006.13
2022-08-29 22:20:00,,0829.9,5.01,0.00,29.5,27.0,00.0,38.1,31.4,23.3,0000.0,0007.43,0018.18,0006.15
2022-08-29 22:21:00,,0829.8,5.00,0.00,29.5,26.4,00.0,38.1,31.3,23.7,0000.0,0007.49,0018.43,0006.14
2022-08-29 22:22:00,,0829.8,5.00,0.00,29.4,26.6,00.0,38.1,31.2,23.3,0000.0,0007.52,0018.74,0006.14
2022-08-29 22:23:00,,0829.8,5.00,0.00,29.4,26.9,00.0,38.0,31.1,23.4,0000.0,0007.49,0018.62,0006.13
2022-08-29 22:24:00,,0829.8,4.99,0.00,29.4,27.2,00.0,38.0,31.1,23.5,0000.0,0007.47,0019.27,0006.12
2022-08-29 22:25:00,,0829.8,5.01,0.00,29.4,27.5,00.0,38.0,31.2,23.7,0000.0,0007.44,0019.70,0006.11
2022-08-29 22:26:00,,0829.8,5.00,0.00,29.4,27.8,00.0,38.0,31.2,23.8,0000.0,0007.42,0020.15,0006.09
2022-08-29 22:27:00,,0829.8,5.00,0.00,29.4,28.1,00.0,38.0,31.3,23.5,0000.0,0007.38,0020.64,0006.07
2022-08-29 22:28:00,,0829.8,5.01,0.00,29.5,28.3,00.0,38.1,31.4,23.7,0000.0,0007.36,0021.76,0006.06
2022-08-29 22:29:00,,0829.8,5.00,0.00,29.5,28.5,00.0,38.1,31.5,23.7,0000.0,0007.39,0021.79,0006.05
2022-08-29 22:30:00,,0829.8,5.00,0.00,29.6,27.9,00.0,38.1,31.5,23.6,0000.0,0007.38,0021.06,0006.06
2022-08-29 22:31:00,,0829.8,5.00,0.00,29.5,26.7,00.0,38.1,31.3,23.4,0000.0,0007.39,0020.18,0006.05
2022-08-29 22:32:00,,0829.8,5.00,0.00,29.5,26.4,00.0,38.1,31.3,23.0,0000.0,0007.35,0019.38,0006.04
2022-08-29 22:33:00,,0829.8,5.00,0.00,29.4,26.7,00.0,38.0,31.2,22.7,0000.0,0007.38,0019.67,0006.04
2022-08-29 22:34:00,,0829.8,5.00,0.00,29.4,27.0,00.0,38.0,31.1,22.4,0000.0,0007.38,0020.52,0006.03
2022-08-29 22:35:00,,0829.9,4.99,0.00,29.4,27.3,00.0,38.0,31.1,22.5,0000.0,0007.36,0019.99,0006.03
2022-08-29 22:36:00,,0829.9,5.00,0.00,29.4,27.6,00.0,38.0,31.2,22.5,0000.0,0007.40,0019.84,0006.02
2022-08-29 22:37:00,,0829.9,5.00,0.00,29.4,27.9,00.0,38.0,31.3,22.7,0000.0,0007.43,0020.16,0006.01
2022-08-29 22:38:00,,0829.8,5.01,0.00,29.5,28.2,00.0,38.0,31.4,22.7,0000.0,0007.45,0019.77,0006.00
2022-08-29 22:39:00,,0829.8,5.01,0.00,29.5,28.4,00.0,38.1,31.4,22.9,0000.0,0007.46,0018.95,0006.00
2022-08-29 22:40:00,,0829.9,4.98,0.00,29.5,28.4,00.0,38.1,31.5,23.0,0000.0,0007.43,0019.47,0006.00
2022-08-29 22:41:00,,0829.8,5.01,0.00,29.6,27.5,00.0,38.1,31.5,23.0,0000.0,0007.47,0020.51,0006.00
2022-08-29 22:42:00,,0829.9,5.00,0.00,29.5,26.5,00.0,38.1,31.3,23.1,0000.0,0007.44,0020.90,0006.02
2022-08-29 22:43:00,,0829.8,5.01,0.00,29.5,26.6,00.0,38.1,31.3,22.8,0000.0,0007.41,0021.36,0006.01
2022-08-29 22:44:00,,0829.9,4.98,0.00,29.4,26.8,00.0,38.0,31.1,23.0,0000.0,0007.38,0021.15,0006.00
2022-08-29 22:45:00,,0829.9,5.01,0.00,29.4,27.1,00.0,38.0,31.1,23.2,0000.0,0007.37,0020.17,0005.99
2022-08-29 22:46:00,,0829.9,4.99,0.00,29.4,27.5,00.0,38.0,31.1,23.2,0000.0,0007.38,0020.46,0005.99
2022-08-29 22:47:00,,0829.8,5.00,0.00,29.4,27.8,00.0,38.0,31.2,23.3,0000.0,0007.33,0021.11,0005.99
2022-08-29 22:48:00,,0829.9,5.00,0.00,29.4,28.0,00.0,38.0,31.3,23.4,0000.0,0007.28,0021.17,0005.99
2022-08-29 22:49:00,,0829.9,5.01,0.00,29.5,28.2,00.0,38.0,31.4,22.9,0000.0,0007.31,0021.90,0005.99
2022-08-29 22:50:00,,0829.9,4.99,0.00,29.5,28.4,00.0,38.1,31.4,23.0,0000.0,0007.33,0023.10,0006.00
2022-08-29 22:51:00,,0829.9,4.99,0.00,29.6,28.3,00.0,38.1,31.5,23.0,0000.0,0007.32,0022.38,0006.01
2022-08-29 22:52:00,,0829.8,5.01,0.00,29.5,27.1,00.0,38.1,31.4,22.9,0000.0,0007.29,0021.99,0006.00
2022-08-29 22:53:00,,0829.9,5.01,0.00,29.5,26.5,00.0,38.1,31.3,23.0,0000.0,0007.29,0021.67,0005.98
2022-08-29 22:54:00,,0830.0,4.99,0.00,29.5,26.7,00.0,38.0,31.3,23.0,0000.0,0007.31,0021.61,0005.98
2022-08-29 22:55:00,,0829.8,5.00,0.00,29.4,27.0,00.0,38.0,31.1,23.0,0000.0,0007.22,0021.28,0005.98
2022-08-29 22:56:00,,0829.9,4.99,0.00,29.4,27.3,00.0,38.0,31.1,23.2,0000.0,0007.25,0021.87,0005.98
2022-08-29 22:57:00,,0829.9,5.02,0.00,29.4,27.6,00.0,38.0,31.2,23.3,0000.0,0007.29,0021.89,0005.98
2022-08-29 22:58:00,,0829.9,5.01,0.00,29.4,27.9,00.0,38.0,31.3,23.0,0000.0,0007.32,0021.94,0005.98
2022-08-29 22:59:00,,0829.8,5.00,0.00,29.4,28.1,00.0,38.0,31.3,22.6,0000.0,0007.31,0021.00,0005.98
